IRIDIUM 164

Last updated on Tue Sep 22 2026 00:03:21 GMT+0000 (Coordinated Universal Time)

1 43577U 18061J 26264.58826833 .00000107 00000+0 31236-4 0 9991 2 43577 86.4014 16.4557 0002014 96.0557 264.0869 14.34217466427239
UTC large
Height (km)
Speed (km/s)
/
Latitude / Longitude
Inclination (degrees)
Orbital Period (minutes)
Azimuth
Elevation
Range (km)
Doppler Factor

Next 0 passes for location: London (51.5072 / 0.1276)

No passes found over London.
IRIDIUM 164